{"data":{"norad_id":54773,"epoch":"2026-09-20T11:23:43.477728Z","epoch_age_seconds":92017,"freshness":"FRESH","line1":"1 54773U 22175R   26263.47480877  .00000365  00000+0  21955-4 0  9996","line2":"2 54773  53.1605 237.9043 0001381  86.4590 273.6570 15.34390832209482","mean_motion":15.34390832,"eccentricity":0.0001381,"inclination_deg":53.1605,"raan_deg":237.9043,"arg_perigee_deg":86.459,"mean_anomaly_deg":273.657,"bstar":2.1955e-5,"rev_number":20948,"period_min":93.848318822593,"perigee_km":461.78576577054,"apogee_km":463.67521337116,"semimajor_km":6840.8674895709,"source":"CELESTRAK","updated_at":"2026-09-21T09:00:33.122836Z"}}